Location: Cormont
(50.5693°N, 1.7416°E)
Time: 00:39:36
(UTC+00:00)

Cosmos 1802 Rocket - Pass Details

Date: 21 October 2019
Orbit: 955 x 1011 km, 82.9° (Epoch: 11 November)

Event Time Altitude Azimuth Distance (km) Brightness Sun altitude
Rises 19:11:23 0° 349° (N) 3,759 7.4 -23.1°
Reaches altitude 10° 19:13:56 10° 349° (N) 2,804 6.7 -23.5°
Maximum altitude 19:20:24 83° 262° (W) 1,023 4.1 -24.5°
Enters shadow 19:26:33 11° 176° (S) 2,682 6.1 -25.5°
